Wausau, WI

9:22 AM CDT on May 22, 2018 (GMT -0500)
Wausau Downtown

Weather History for KAUW - October, 2011

Change the Weather History Date:

Thursday, October 13, 2011

  Actual Average Record
Temperature  
Mean Temperature 53 °F 47 °F  
Max Temperature 56 °F 57 °F 82 °F (1975)
Min Temperature 49 °F 38 °F 23 °F (1988)
Degree Days  
Heating Degree Days 12 18  
Month to date heating degree days 77 205  
Since 1 July heating degree days 352 498  
Cooling Degree Days 0 0  
Month to date cooling degree days 8 0  
Year to date cooling degree days 558 405  
Growing Degree Days 2 (Base 50)    
Moisture  
Dew Point 52 °F    
Average Humidity 90    
Maximum Humidity 100    
Minimum Humidity 80    
Precipitation  
Precipitation 1.17 in 0.10 in 1.17 in (2011)
Month to date precipitation 1.40 1.41  
Year to date precipitation 32.25 27.52  
Snow  
Snow 0.00 in 0.10 in 0.20 in (2006)
Month to date snowfall 0.0 0.4  
Since 1 July snowfall 0.0 0.4  
Snow Depth 0.00 in    
Sea Level Pressure  
Sea Level Pressure 29.53 in    
Wind  
Wind Speed 9 mph (NE)    
Max Wind Speed 18 mph    
Max Gust Speed 26 mph    
Visibility 5 miles    
Events Rain    
T = Trace of Precipitation, MM = Missing Value Source: NWS Daily Summary

Daily Weather History Graph

Daily Weather History Graph

Search for Another Location

Airport or City:

Astronomy

Oct. 13, 2011 Rise Set
Actual Time 7:11 AM CDT 6:17 PM CDT
Civil Twilight 6:41 AM CDT 6:47 PM CDT
Nautical Twilight 6:07 AM CDT 7:20 PM CDT
Astronomical Twilight 5:33 AM CDT 7:54 PM CDT
Moon 6:45 PM CDT (10/13) 8:50 AM CDT (10/13)
Length of Visible Light 12h 05m
Length of Day
11h 06m
Full, 98% of the Moon is Illuminated
Oct 13
Full
Oct 19
Last Quarter
Oct 26
New
Nov 2
First Quarter
Nov 10
Full

Hourly Weather History & Observations

Time (CDT) Temp. Dew Point Humidity Pressure Visibility Wind Dir Wind Speed Gust Speed Precip Events Conditions
12:54 AM 55.9 °F 54.0 °F 93% 29.65 in 4.0 mi ENE 6.9 mph - 0.06 in Rain Rain
1:54 AM 55.0 °F 53.1 °F 93% 29.64 in 4.0 mi East 6.9 mph - 0.05 in Rain Light Rain
2:44 AM 55.4 °F 53.6 °F 94% 29.61 in 3.0 mi East 5.8 mph - 0.10 in Rain Light Rain
2:54 AM 55.0 °F 53.1 °F 93% 29.62 in 3.0 mi East 5.8 mph - 0.11 in Rain Light Rain
3:20 AM 55.4 °F 53.6 °F 94% 29.60 in 3.0 mi East 8.1 mph - 0.03 in Rain Light Rain
3:30 AM 55.4 °F 53.6 °F 94% 29.60 in 2.5 mi East 8.1 mph - 0.04 in Rain Light Rain
3:39 AM 55.4 °F 53.6 °F 94% 29.59 in 3.0 mi East 6.9 mph - 0.05 in Rain Light Rain
3:51 AM 55.4 °F 53.6 °F 94% 29.59 in 2.5 mi East 8.1 mph - 0.07 in Rain Light Rain
3:54 AM 55.0 °F 53.1 °F 93% 29.60 in 2.5 mi East 9.2 mph - 0.07 in Rain Light Rain
4:01 AM 55.4 °F 53.6 °F 94% 29.59 in 3.0 mi East 8.1 mph - 0.01 in Rain Light Rain
4:39 AM 55.4 °F 53.6 °F 94% 29.58 in 3.0 mi East 6.9 mph - 0.06 in Rain Light Rain
4:54 AM 55.0 °F 53.1 °F 93% 29.59 in 3.0 mi East 6.9 mph - 0.08 in Rain Light Rain
5:54 AM 54.0 °F 53.1 °F 97% 29.60 in 3.0 mi ESE 5.8 mph - 0.08 in Rain Rain
6:14 AM 53.6 °F 51.8 °F 94% 29.58 in 3.0 mi ESE 6.9 mph - 0.02 in Rain Light Rain
6:22 AM 53.6 °F 51.8 °F 94% 29.57 in 3.0 mi East 5.8 mph - 0.03 in Rain Light Rain
6:54 AM 54.0 °F 52.0 °F 93% 29.58 in 3.0 mi ESE 9.2 mph - 0.08 in Rain Light Rain
7:02 AM 53.6 °F 51.8 °F 94% 29.57 in 3.0 mi ESE 8.1 mph - 0.01 in Rain Light Rain
7:36 AM 53.6 °F 51.8 °F 94% 29.56 in 3.0 mi ESE 9.2 mph - 0.05 in Rain Light Rain
7:54 AM 54.0 °F 52.0 °F 93% 29.57 in 3.0 mi ESE 5.8 mph - 0.06 in Rain Light Rain
8:08 AM 53.6 °F 53.6 °F 100% 29.56 in 3.0 mi SE 5.8 mph - 0.01 in Rain Light Rain
9:25 AM 55.4 °F 53.6 °F 94% 29.55 in 2.5 mi East 3.5 mph - 0.02 in Rain Light Rain
9:42 AM 55.4 °F 53.6 °F 94% 29.54 in 2.5 mi East 5.8 mph - 0.04 in Rain Light Rain
9:52 AM 55.4 °F 53.6 °F 94% 29.54 in 2.5 mi East 6.9 mph - 0.05 in Rain Light Rain
9:54 AM 55.0 °F 53.1 °F 93% 29.55 in 2.5 mi East 5.8 mph - 0.05 in Rain Light Rain
10:34 AM 55.4 °F 53.6 °F 94% 29.53 in 2.5 mi East 4.6 mph - 0.03 in Rain Light Rain
10:37 AM 55.4 °F 53.6 °F 94% 29.53 in 3.0 mi East 5.8 mph - 0.04 in Rain Light Rain
10:46 AM 55.4 °F 53.6 °F 94% 29.53 in 2.5 mi East 4.6 mph - 0.05 in Rain Light Rain
10:54 AM 55.9 °F 54.0 °F 93% 29.54 in 2.5 mi East 4.6 mph - 0.05 in Rain Light Rain
11:01 AM 55.4 °F 53.6 °F 94% 29.52 in 3.0 mi East 4.6 mph - 0.00 in Rain Light Rain
11:11 AM 55.4 °F 53.6 °F 94% 29.52 in 3.0 mi East 5.8 mph - 0.00 in Rain Light Rain
11:20 AM 55.4 °F 53.6 °F 94% 29.52 in 4.0 mi East 5.8 mph - 0.00 in Rain Light Rain
11:47 AM 55.4 °F 53.6 °F 94% 29.51 in 2.5 mi ENE 4.6 mph - 0.01 in Rain Light Rain
11:54 AM 55.9 °F 54.0 °F 93% 29.52 in 2.0 mi ENE 5.8 mph - 0.02 in Rain Rain
12:04 PM 55.4 °F 53.6 °F 94% 29.50 in 1.5 mi ENE 4.6 mph - 0.05 in Rain Heavy Rain
12:29 PM 55.4 °F 53.6 °F 94% 29.50 in 1.5 mi Calm Calm - 0.17 in Rain Heavy Rain
12:37 PM 55.4 °F 53.6 °F 94% 29.50 in 1.5 mi West 3.5 mph - 0.20 in Rain Rain
12:54 PM 55.9 °F 53.1 °F 90% 29.51 in 2.0 mi West 15.0 mph 19.6 mph 0.28 in Rain Rain
1:02 PM 55.4 °F 53.6 °F 94% 29.49 in 5.0 mi WNW 10.4 mph - 0.02 in Rain Light Rain
1:25 PM 55.4 °F 53.6 °F 94% 29.48 in 4.0 mi WNW 6.9 mph - 0.06 in Rain Rain
2:03 PM 55.4 °F 53.6 °F 94% 29.48 in 10.0 mi WNW 13.8 mph - 0.00 in Rain Light Rain
2:15 PM 55.4 °F 53.6 °F 94% 29.47 in 10.0 mi WNW 9.2 mph - 0.01 in Rain Light Rain
2:54 PM 55.9 °F 53.1 °F 90% 29.49 in 7.0 mi NW 5.8 mph - 0.03 in Rain Light Rain
3:54 PM 55.9 °F 53.1 °F 90% 29.48 in 10.0 mi NNW 3.5 mph - 0.01 in   Overcast
4:14 PM 55.4 °F 53.6 °F 94% 29.47 in 5.0 mi WNW 5.8 mph - 0.02 in Rain Light Rain
4:21 PM 55.4 °F 53.6 °F 94% 29.47 in 5.0 mi West 11.5 mph - 0.03 in Rain Light Rain
4:32 PM 55.4 °F 53.6 °F 94% 29.47 in 4.0 mi WNW 10.4 mph - 0.04 in Rain Light Rain
4:45 PM 55.4 °F 53.6 °F 94% 29.47 in 3.0 mi WNW 10.4 mph - 0.07 in Rain Rain
4:54 PM 55.0 °F 53.1 °F 93% 29.48 in 5.0 mi WNW 12.7 mph 21.9 mph 0.08 in Rain Light Rain
5:23 PM 55.4 °F 51.8 °F 88% 29.47 in 10.0 mi NW 13.8 mph 20.7 mph 0.00 in   Overcast
5:51 PM 53.6 °F 51.8 °F 94% 29.47 in 9.0 mi NW 8.1 mph - 0.00 in   Overcast
6:22 PM 53.6 °F 51.8 °F 94% 29.48 in 9.0 mi NW 10.4 mph 18.4 mph 0.00 in Rain Light Rain
6:39 PM 53.6 °F 51.8 °F 94% 29.48 in 10.0 mi WNW 9.2 mph - 0.00 in   Overcast
6:54 PM 54.0 °F 50.0 °F 86% 29.50 in 10.0 mi WNW 10.4 mph - 0.01 in   Overcast
7:54 PM 54.0 °F 50.0 °F 86% 29.51 in 10.0 mi WNW 6.9 mph - N/A   Overcast
9:50 PM 53.6 °F 48.2 °F 82% 29.49 in 10.0 mi NW 12.7 mph - N/A   Overcast
9:54 PM 53.1 °F 48.0 °F 83% 29.51 in 10.0 mi NW 15.0 mph 20.7 mph N/A   Overcast
10:54 PM 52.0 °F 46.9 °F 83% 29.50 in 10.0 mi WNW 11.5 mph - N/A   Overcast
11:29 PM 51.8 °F 44.6 °F 76% 29.49 in 10.0 mi NW 11.5 mph 24.2 mph 0.00 in   Overcast
11:40 PM 50.0 °F 44.6 °F 82% 29.49 in 10.0 mi NW 15.0 mph 20.7 mph 0.00 in   Overcast
11:54 PM 50.0 °F 44.1 °F 80% 29.51 in 10.0 mi NW 12.7 mph 21.9 mph 0.00 in   Overcast